Regional Weather Roundup
Issued by NWS

Home | Current Version | Previous Version | Text Only | Print | Product List | Glossary Off
Versions: 1 2 3 4 5 6 7 8 9 10 11 12 13 14 15 16 17 18 19 20 21 22 23 24 25 26 27 28 29 30 31 32 33 34 35 36 37 38 39 40 41 42 43 44 45 46 47 48 49 50

000
ASUS43 KMPX 290310
RWRMN
WEATHER ROUNDUP FOR MINNESOTA
NATIONAL WEATHER SERVICE TWIN CITIES/CHANHASSEN MN
1000 PM CDT WED JUN 28 2017


NOTE: "FAIR" INDICATES FEW OR NO CLOUDS BELOW 12,000 FEET WITH NO
SIGNIFICANT WEATHER AND/OR OBSTRUCTIONS TO VISIBILITY. N/A MEANS
CURRENT SKY AND/OR WEATHER CONDITIONS ARE NOT AVAILABLE.

MNZ060>063-068>070-290400-
   Twin Cities Metro

CITY           SKY/WX    TMP DP  RH WIND       PRES   REMARKS
TWIN CITIES    PTCLDY    74  62  66 W12G18    29.57R
ST PAUL        MOCLDY    73  64  73 W8        29.57R
CRYSTAL        CLEAR     70  58  65 NW16      29.56R
BLAINE         CLEAR     72  61  68 W15       29.57R
LAKEVILLE      CLOUDY    68  63  83 CALM      29.59R
EDEN PRAIRIE   CLEAR     74  62  66 W8        29.57R
SOUTH ST PAUL  CLOUDY    73  61  65 W6        29.57R
LAKE ELMO      CLOUDY    72  63  73 W7        29.57R
$$
MNZ001>005-007-008-013>017-022>024-027-028-290400-
   Northwest Minnesota

CITY           SKY/WX    TMP DP  RH WIND       PRES   REMARKS
BEMIDJI        CLOUDY    60  60  97 NW8       29.62R
HALLOCK        CLOUDY    61  59  94 CALM      29.67R
ROSEAU           N/A     61  55  82 N5        29.68R
WARROAD        DRIZZLE   59  55  88 NE9       29.68R
THIEF RVR FALL CLOUDY    61  57  88 N7        29.68R
CROOKSTON      CLOUDY    61  61 100 N7        29.67R
FOSSTON        CLOUDY    57  57 100 NW9       29.66R
DETROIT LAKES  CLOUDY    61  59  94 N10       29.66R
MOORHEAD       CLOUDY    64  61  88 N8        29.67R
PARK RAPIDS    CLOUDY    62  58  86 NW9       29.61R
MAHNOMEN       CLOUDY    60  58  96 N8        29.65R
$$
MNZ006-009>011-018-025>026-290400-
   North Central Minnesota

CITY           SKY/WX    TMP DP  RH WIND       PRES   REMARKS
BAUDETTE       CLOUDY    61  61 100 NE9       29.64S
FLAG ISLAND    CLOUDY    61  59  94 N10       29.67R
INTL FALLS     LGT RAIN  60  58  92 NE5       29.63R
WASKISH        DRIZZLE   61  59  94 NE8       29.62S
BIG FORK       DRIZZLE   59  57  94 N6        29.60R
LONGVILLE      LGT RAIN  59  57  94 N5        29.58S
GRAND RAPIDS   LGT RAIN  59  59 100 N9        29.59R FOG
CRANE LAKE     LGT RAIN  57  57 100 CALM      29.62R
ORR            DRIZZLE   57  55  94 CALM      29.57R
COOK           DRIZZLE   57  57 100 CALM      29.59R
WALKER         CLOUDY    59  59  97 NW3       29.61R
$$
MNZ012-019>021-037-290400-
   Northeast Minnesota

CITY           SKY/WX    TMP DP  RH WIND       PRES   REMARKS
DULUTH         DRIZZLE   59  59 100 NW3       29.51R
ELY            CLOUDY    57  57 100 NE5       29.58R
HIBBING        CLOUDY    58  58 100 N6        29.55R
EVELETH        CLOUDY    60  57  90 NE5       29.56R
DULUTH HARBOR  CLOUDY    52  50  93 E16       29.51S
TWO HARBORS    CLOUDY    61  55  82 NE7       29.50S
SILVER BAY     CLOUDY    57  57 100 NE12G17   29.52S
GRAND MARAIS     N/A     55  54  96 E15G22    29.57F
G MARAIS ARPRT LGT RAIN  55  54  94 NE12      29.61S
$$
MNZ029>031-032-039>041-046>048-054>057-064-290400-
   West Central Minnesota

CITY           SKY/WX    TMP DP  RH WIND       PRES   REMARKS
FERGUS FALLS   CLOUDY    64  59  82 N10       29.64R
WHEATON        CLEAR     66  61  82 NW8       29.68R
MORRIS         CLEAR     66  63  88 NW12      29.64R
ALEXANDRIA     CLOUDY    65  59  81 NW14      29.65R
ELBOW LAKE     CLOUDY    64  60  87 N15       29.65R
WADENA         CLOUDY    61  61 100 NW9       29.62R
GLENWOOD       PTCLDY    64  61  88 NW14      29.64R
APPLETON       CLEAR     70  61  73 NW7       29.65R
BENSON         CLEAR     66  61  82 N6        29.66R
ORTONVILLE     CLEAR     70  61  73 NW9       29.66R
MADISON        CLEAR     72  61  68 NW8       29.67R
WILLMAR        FAIR      70  63  78 W8        29.65R
$$
MNZ033>034-036-042>043-049>051-058-059-290400-
   Central Minnesota

CITY           SKY/WX    TMP DP  RH WIND       PRES   REMARKS
ST CLOUD       CLOUDY    69  61  75 W12       29.57R
SAUK CENTRE    CLOUDY    66  59  79 NW10      29.62R
PAYNESVILLE    CLOUDY    66  60  81 W9        29.63R
AITKIN         CLOUDY    61  59  94 NW5       29.54R
PINE RIVER     CLOUDY    61  61 100 MISG      29.63R
BRAINERD       CLOUDY    62  60  93 NW13      29.59R
STAPLES        CLOUDY    61  59  94 NW9G16    29.60R
LONG PRAIRIE   CLOUDY    64  59  82 W14       29.62R
LITTLE FALLS   CLOUDY    64  59  82 W10G18    29.58R
LITCHFIELD     CLEAR     68  63  83 NW7       29.62R
BUFFALO        CLOUDY    68  59  72 W12       29.60R
MAPLE LAKE     CLOUDY    69  61  77 W9G16     29.61R
HUTCHINSON     CLOUDY    69  62  78 W9        29.63R
$$
MNZ037-044-045-052-053-290400-
   East Central Minnesota

CITY           SKY/WX    TMP DP  RH WIND       PRES   REMARKS
PRINCETON      CLOUDY    70  63  78 W8        29.57R
MORA           CLOUDY    64  61  88 W7        29.56R FOG
CAMBRIDGE      CLOUDY    70  59  68 W8        29.54R
RUSH CITY      CLOUDY    66  61  82 W6        29.54R
MOOSE LAKE     CLOUDY    54  52  94 N3        29.52R FOG
HINCKLEY       CLOUDY    66  63  88 W9        29.53R
CLOQUET        DRZL/FOG  57  55  94 CALM      29.53R VSB 3/4
MCGREGOR       CLOUDY    59  59 100 NW6       29.55R
$$
MNZ071>073-080-081-089-090-097-098-290400-
   Southwest Minnesota

CITY           SKY/WX    TMP DP  RH WIND       PRES   REMARKS
MONTEVIDEO     CLEAR     70  57  64 N5        29.65R
GRANITE FALLS  CLEAR     70  62  74 W7        29.67R
CANBY          CLEAR     70  59  69 CALM      29.70R
MARSHALL       CLEAR     68  61  78 NW8       29.68R
REDWOOD FALLS  CLEAR     70  60  70 NW8       29.64R
OLIVIA         CLEAR     70  63  78 NW7       29.64R
PIPESTONE      CLEAR     75  57  53 N7        29.70R
WINDOM         CLEAR     72  63  73 NW10      29.67R
WORTHINGTON    CLEAR     69  63  81 W6        29.69R
JACKSON        CLEAR     72  63  73 CALM      29.68R
TRACY          CLEAR     71  64  78 N6        29.69R
SLAYTON        CLEAR     68  62  82 NW5       29.68R
$$
MNZ065>067-074>077-082>085-091>093-290400-
   South Central Minnesota

CITY           SKY/WX    TMP DP  RH WIND       PRES   REMARKS
MANKATO        PTCLDY    73  64  73 NW10      29.63R
NEW ULM        CLEAR     72  61  68 NW8       29.63R
ST JAMES       CLEAR     72  64  78 NW7       29.65R
FAIRMONT       CLEAR     73  66  78 NW8       29.65R
GLENCOE        CLEAR     72  64  77 W13G18    29.60R
FARIBAULT      PTCLDY    70  64  83 CALM      29.61R
OWATONNA       PTCLDY    72  66  83 CALM      29.62R
WASECA         MOCLDY    72  66  83 CALM      29.64R
ALBERT LEA     TSTM      70  68  94 CALM      29.64R
$$
MNZ078>079-086>088-094>096-290400-
   Southeast Minnesota

CITY           SKY/WX    TMP DP  RH WIND       PRES   REMARKS
ROCHESTER      CLOUDY    67  66  97 SW9       29.64R
RED WING       CLOUDY    70  66  88 CALM      29.57R
STANTON        PTCLDY    71  64  81 SW5       29.58R
DODGE CENTER   CLOUDY    70  66  88 SW5       29.62S
WINONA         TSTM      66  64  94 CALM      29.61S
AUSTIN         TSTM      68  63  83 CALM      29.64R
PRESTON        RAIN      66  64  91 W7        29.66R
$$
ABBREVIATIONS USED IN REMARKS
   TC - TEMPERATURES IN CELSIUS
  WCI - WIND CHILL INDEX
   HX - HEAT INDEX
  VSB - VISIBILITY
$$



USA.gov is the U.S. government's official web portal to all federal, state and local government web resources and services.